Year,Month,Day,Hour,Minute,Value (Times are PST for temperature in C)
2022,04,17,00,00,3.90
2022,04,17,00,01,3.90
2022,04,17,00,02,3.80
2022,04,17,00,03,3.90
2022,04,17,00,04,3.90
2022,04,17,00,05,3.90
2022,04,17,00,06,3.90
2022,04,17,00,07,3.80
2022,04,17,00,08,3.90
2022,04,17,00,09,3.90
2022,04,17,00,10,3.90
2022,04,17,00,11,3.90
2022,04,17,00,12,3.80
2022,04,17,00,13,3.80
2022,04,17,00,14,3.80
2022,04,17,00,15,3.80
2022,04,17,00,16,3.80
2022,04,17,00,17,3.80
2022,04,17,00,18,3.80
2022,04,17,00,19,3.80
2022,04,17,00,20,3.80
2022,04,17,00,21,3.80
2022,04,17,00,22,3.80
2022,04,17,00,23,3.80
2022,04,17,00,24,3.80
2022,04,17,00,25,3.80
2022,04,17,00,26,3.80
2022,04,17,00,27,3.80
2022,04,17,00,28,3.80
2022,04,17,00,29,3.80
2022,04,17,00,30,3.80
2022,04,17,00,31,3.80
2022,04,17,00,32,3.70
2022,04,17,00,33,3.80
2022,04,17,00,34,3.80
2022,04,17,00,35,3.80
2022,04,17,00,36,3.80
2022,04,17,00,37,3.80
2022,04,17,00,38,3.80
2022,04,17,00,39,3.80
2022,04,17,00,40,3.80
2022,04,17,00,41,3.70
2022,04,17,00,42,3.70
2022,04,17,00,43,3.70
2022,04,17,00,44,3.80
2022,04,17,00,45,3.70
2022,04,17,00,46,3.70
2022,04,17,00,47,3.70
2022,04,17,00,48,3.70
2022,04,17,00,49,3.70
2022,04,17,00,50,3.70
2022,04,17,00,51,3.70
2022,04,17,00,52,3.70
2022,04,17,00,53,3.70
2022,04,17,00,54,3.70
2022,04,17,00,55,3.70
2022,04,17,00,56,3.70
2022,04,17,00,57,3.70
2022,04,17,00,58,3.70
2022,04,17,00,59,3.80
2022,04,17,01,00,3.70
2022,04,17,01,01,3.70
2022,04,17,01,02,3.70
2022,04,17,01,03,3.70
2022,04,17,01,04,3.70
2022,04,17,01,05,3.70
2022,04,17,01,06,3.70
2022,04,17,01,07,3.70
2022,04,17,01,08,3.70
2022,04,17,01,09,3.70
2022,04,17,01,10,3.70
2022,04,17,01,11,3.70
2022,04,17,01,12,3.70
2022,04,17,01,13,3.70
2022,04,17,01,14,3.70
2022,04,17,01,15,3.70
2022,04,17,01,16,3.70
2022,04,17,01,17,3.70
2022,04,17,01,18,3.70
2022,04,17,01,19,3.70
2022,04,17,01,20,3.70
2022,04,17,01,21,3.70
2022,04,17,01,22,3.70
2022,04,17,01,23,3.70
2022,04,17,01,24,3.70
2022,04,17,01,25,3.70
2022,04,17,01,26,3.70
2022,04,17,01,27,3.70
2022,04,17,01,28,3.70
2022,04,17,01,29,3.70
2022,04,17,01,30,3.70
2022,04,17,01,31,3.70
2022,04,17,01,32,3.70
2022,04,17,01,33,3.60
2022,04,17,01,34,3.60
2022,04,17,01,35,3.60
2022,04,17,01,36,3.60
2022,04,17,01,37,3.60
2022,04,17,01,38,3.60
2022,04,17,01,39,3.60
2022,04,17,01,40,3.60
2022,04,17,01,41,3.60
2022,04,17,01,42,3.60
2022,04,17,01,43,3.60
2022,04,17,01,44,3.50
2022,04,17,01,45,3.50
2022,04,17,01,46,3.50
2022,04,17,01,47,3.50
2022,04,17,01,48,3.50
2022,04,17,01,49,3.60
2022,04,17,01,50,3.50
2022,04,17,01,51,3.60
2022,04,17,01,52,3.60
2022,04,17,01,53,3.60
2022,04,17,01,54,3.50
2022,04,17,01,55,3.60
2022,04,17,01,56,3.50
2022,04,17,01,57,3.50
2022,04,17,01,58,3.50
2022,04,17,01,59,3.50
2022,04,17,02,00,3.50
2022,04,17,02,01,3.50
2022,04,17,02,02,3.50
2022,04,17,02,03,3.50
2022,04,17,02,04,3.40
2022,04,17,02,05,3.40
2022,04,17,02,06,3.40
2022,04,17,02,07,3.40
2022,04,17,02,08,3.40
2022,04,17,02,09,3.40
2022,04,17,02,10,3.40
2022,04,17,02,11,3.40
2022,04,17,02,12,3.40
2022,04,17,02,13,3.40
2022,04,17,02,14,3.40
2022,04,17,02,15,3.40
2022,04,17,02,16,3.40
2022,04,17,02,17,3.40
2022,04,17,02,18,3.40
2022,04,17,02,19,3.40
2022,04,17,02,20,3.30
2022,04,17,02,21,3.40
2022,04,17,02,22,3.30
2022,04,17,02,23,3.40
2022,04,17,02,24,3.40
2022,04,17,02,25,3.40
2022,04,17,02,26,3.40
2022,04,17,02,27,3.40
2022,04,17,02,28,3.40
2022,04,17,02,29,3.40
2022,04,17,02,30,3.40
2022,04,17,02,31,3.40
2022,04,17,02,32,3.40
2022,04,17,02,33,3.40
2022,04,17,02,34,3.40
2022,04,17,02,35,3.40
2022,04,17,02,36,3.40
2022,04,17,02,37,3.40
2022,04,17,02,38,3.40
2022,04,17,02,39,3.40
2022,04,17,02,40,3.40
2022,04,17,02,41,3.40
2022,04,17,02,42,3.40
2022,04,17,02,43,3.40
2022,04,17,02,44,3.40
2022,04,17,02,45,3.50
2022,04,17,02,46,3.50
2022,04,17,02,47,3.50
2022,04,17,02,48,3.50
2022,04,17,02,49,3.50
2022,04,17,02,50,3.50
2022,04,17,02,51,3.50
2022,04,17,02,52,3.50
2022,04,17,02,53,3.50
2022,04,17,02,54,3.50
2022,04,17,02,55,3.50
2022,04,17,02,56,3.50
2022,04,17,02,57,3.50
2022,04,17,02,58,3.50
2022,04,17,02,59,3.50
2022,04,17,03,00,3.50
2022,04,17,03,01,3.50
2022,04,17,03,02,3.50
2022,04,17,03,03,3.50
2022,04,17,03,04,3.60
2022,04,17,03,05,3.60
2022,04,17,03,06,3.60
2022,04,17,03,07,3.60
2022,04,17,03,08,3.60
2022,04,17,03,09,3.60
2022,04,17,03,10,3.60
2022,04,17,03,11,3.60
2022,04,17,03,12,3.60
2022,04,17,03,13,3.60
2022,04,17,03,14,3.60
2022,04,17,03,15,3.70
2022,04,17,03,16,3.70
2022,04,17,03,17,3.60
2022,04,17,03,18,3.60
2022,04,17,03,19,3.60
2022,04,17,03,20,3.60
2022,04,17,03,21,3.60
2022,04,17,03,22,3.60
2022,04,17,03,23,3.60
2022,04,17,03,24,3.60
2022,04,17,03,25,3.60
2022,04,17,03,26,3.60
2022,04,17,03,27,3.60
2022,04,17,03,28,3.60
2022,04,17,03,29,3.60
2022,04,17,03,30,3.60
2022,04,17,03,31,3.60
2022,04,17,03,32,3.60
2022,04,17,03,33,3.60
2022,04,17,03,34,3.60
2022,04,17,03,35,3.60
2022,04,17,03,36,3.60
2022,04,17,03,37,3.60
2022,04,17,03,38,3.50
2022,04,17,03,39,3.50
2022,04,17,03,40,3.50
2022,04,17,03,41,3.50
2022,04,17,03,42,3.50
2022,04,17,03,43,3.50
2022,04,17,03,44,3.50
2022,04,17,03,45,3.40
2022,04,17,03,46,3.40
2022,04,17,03,47,3.40
2022,04,17,03,48,3.40
2022,04,17,03,49,3.40
2022,04,17,03,50,3.40
2022,04,17,03,51,3.40
2022,04,17,03,52,3.40
2022,04,17,03,53,3.30
2022,04,17,03,54,3.30
2022,04,17,03,55,3.40
2022,04,17,03,56,3.30
2022,04,17,03,57,3.30
2022,04,17,03,58,3.30
2022,04,17,03,59,3.30
2022,04,17,04,00,3.30
2022,04,17,04,01,3.30
2022,04,17,04,02,3.30
2022,04,17,04,03,3.30
2022,04,17,04,04,3.30
2022,04,17,04,05,3.20
2022,04,17,04,06,3.20
2022,04,17,04,07,3.20
2022,04,17,04,08,3.20
2022,04,17,04,09,3.20
2022,04,17,04,10,3.20
2022,04,17,04,11,3.10
2022,04,17,04,12,3.10
2022,04,17,04,13,3.10
2022,04,17,04,14,3.10
2022,04,17,04,15,3.20
2022,04,17,04,16,3.20
2022,04,17,04,17,3.20
2022,04,17,04,18,3.20
2022,04,17,04,19,3.20
2022,04,17,04,20,3.20
2022,04,17,04,21,3.20
2022,04,17,04,22,3.20
2022,04,17,04,23,3.20
2022,04,17,04,24,3.20
2022,04,17,04,25,3.20
2022,04,17,04,26,3.20
2022,04,17,04,27,3.20
2022,04,17,04,28,3.20
2022,04,17,04,29,3.20
2022,04,17,04,30,3.20
2022,04,17,04,31,3.20
2022,04,17,04,32,3.20
2022,04,17,04,33,3.20
2022,04,17,04,34,3.20
2022,04,17,04,35,3.20
2022,04,17,04,36,3.20
2022,04,17,04,37,3.20
2022,04,17,04,38,3.20
2022,04,17,04,39,3.20
2022,04,17,04,40,3.20
2022,04,17,04,41,3.20
2022,04,17,04,42,3.20
2022,04,17,04,43,3.20
2022,04,17,04,44,3.20
2022,04,17,04,45,3.20
2022,04,17,04,46,3.20
2022,04,17,04,47,3.20
2022,04,17,04,48,3.20
2022,04,17,04,49,3.20
2022,04,17,04,50,3.20
2022,04,17,04,51,3.20
2022,04,17,04,52,3.20
2022,04,17,04,53,3.20
2022,04,17,04,54,3.10
2022,04,17,04,55,3.10
2022,04,17,04,56,3.10
2022,04,17,04,57,3.10
2022,04,17,04,58,3.10
2022,04,17,04,59,3.10
2022,04,17,05,00,3.10
2022,04,17,05,01,3.10
2022,04,17,05,02,3.10
2022,04,17,05,03,3.10
2022,04,17,05,04,3.00
2022,04,17,05,05,3.00
2022,04,17,05,06,3.00
2022,04,17,05,07,3.00
2022,04,17,05,08,2.90
2022,04,17,05,09,2.90
2022,04,17,05,10,2.90
2022,04,17,05,11,2.90
2022,04,17,05,12,2.90
2022,04,17,05,13,2.80
2022,04,17,05,14,2.80
2022,04,17,05,15,2.80
2022,04,17,05,16,2.80
2022,04,17,05,17,2.80
2022,04,17,05,18,2.80
2022,04,17,05,19,2.80
2022,04,17,05,20,2.80
2022,04,17,05,21,2.80
2022,04,17,05,22,2.80
2022,04,17,05,23,2.80
2022,04,17,05,24,2.80
2022,04,17,05,25,2.80
2022,04,17,05,26,2.80
2022,04,17,05,27,2.80
2022,04,17,05,28,2.80
2022,04,17,05,29,2.80
2022,04,17,05,30,2.70
2022,04,17,05,31,2.70
2022,04,17,05,32,2.70
2022,04,17,05,33,2.70
2022,04,17,05,34,2.70
2022,04,17,05,35,2.60
2022,04,17,05,36,2.60
2022,04,17,05,37,2.60
2022,04,17,05,38,2.60
2022,04,17,05,39,2.50
2022,04,17,05,40,2.50
2022,04,17,05,41,2.50
2022,04,17,05,42,2.40
2022,04,17,05,43,2.40
2022,04,17,05,44,2.40
2022,04,17,05,45,2.40
2022,04,17,05,46,2.40
2022,04,17,05,47,2.30
2022,04,17,05,48,2.30
2022,04,17,05,49,2.30
2022,04,17,05,50,2.30
2022,04,17,05,51,2.30
2022,04,17,05,52,2.30
2022,04,17,05,53,2.30
2022,04,17,05,54,2.30
2022,04,17,05,55,2.30
2022,04,17,05,56,2.30
2022,04,17,05,57,2.30
2022,04,17,05,58,2.30
2022,04,17,05,59,2.30
2022,04,17,06,00,2.30
2022,04,17,06,01,2.30
2022,04,17,06,02,2.30
2022,04,17,06,03,2.30
2022,04,17,06,04,2.30
2022,04,17,06,05,2.30
2022,04,17,06,06,2.30
2022,04,17,06,07,2.30
2022,04,17,06,08,2.40
2022,04,17,06,09,2.40
2022,04,17,06,10,2.40
2022,04,17,06,11,2.40
2022,04,17,06,12,2.40
2022,04,17,06,13,2.40
2022,04,17,06,14,2.50
2022,04,17,06,15,2.50
2022,04,17,06,16,2.50
2022,04,17,06,17,2.50
2022,04,17,06,18,2.60
2022,04,17,06,19,2.60
2022,04,17,06,20,2.60
2022,04,17,06,21,2.60
2022,04,17,06,22,2.60
2022,04,17,06,23,2.60
2022,04,17,06,24,2.60
2022,04,17,06,25,2.60
2022,04,17,06,26,2.60
2022,04,17,06,27,2.60
2022,04,17,06,28,2.60
2022,04,17,06,29,2.60
2022,04,17,06,30,2.60
2022,04,17,06,31,2.60
2022,04,17,06,32,2.60
2022,04,17,06,33,2.60
2022,04,17,06,34,2.50
2022,04,17,06,35,2.50
2022,04,17,06,36,2.50
2022,04,17,06,37,2.50
2022,04,17,06,38,2.50
2022,04,17,06,39,2.50
2022,04,17,06,40,2.50
2022,04,17,06,41,2.50
2022,04,17,06,42,2.50
2022,04,17,06,43,2.50
2022,04,17,06,44,2.50
2022,04,17,06,45,2.50
2022,04,17,06,46,2.50
2022,04,17,06,47,2.50
2022,04,17,06,48,2.50
2022,04,17,06,49,2.50
2022,04,17,06,50,2.50
2022,04,17,06,51,2.50
2022,04,17,06,52,2.50
2022,04,17,06,53,2.50
2022,04,17,06,54,2.50
2022,04,17,06,55,2.50
2022,04,17,06,56,2.50
2022,04,17,06,57,2.50
2022,04,17,06,58,2.50
2022,04,17,06,59,2.50
2022,04,17,07,00,2.60
2022,04,17,07,01,2.60
2022,04,17,07,02,2.60
2022,04,17,07,03,2.60
2022,04,17,07,04,2.60
2022,04,17,07,05,2.60
2022,04,17,07,06,2.60
2022,04,17,07,07,2.60
2022,04,17,07,08,2.70
2022,04,17,07,09,2.70
2022,04,17,07,10,2.70
2022,04,17,07,11,2.70
2022,04,17,07,12,2.70
2022,04,17,07,13,2.70
2022,04,17,07,14,2.70
2022,04,17,07,15,2.70
2022,04,17,07,16,2.70
2022,04,17,07,17,2.70
2022,04,17,07,18,2.70
2022,04,17,07,19,2.70
2022,04,17,07,20,2.70
2022,04,17,07,21,2.70
2022,04,17,07,22,2.70
2022,04,17,07,23,2.70
2022,04,17,07,24,2.80
2022,04,17,07,25,2.80
2022,04,17,07,26,2.80
2022,04,17,07,27,2.80
2022,04,17,07,28,2.80
2022,04,17,07,29,2.90
2022,04,17,07,30,2.90
2022,04,17,07,31,2.90
2022,04,17,07,32,2.90
2022,04,17,07,33,3.00
2022,04,17,07,34,3.00
2022,04,17,07,35,3.00
2022,04,17,07,36,3.10
2022,04,17,07,37,3.10
2022,04,17,07,38,3.10
2022,04,17,07,39,3.20
2022,04,17,07,40,3.20
2022,04,17,07,41,3.20
2022,04,17,07,42,3.30
2022,04,17,07,43,3.30
2022,04,17,07,44,3.30
2022,04,17,07,45,3.30
2022,04,17,07,46,3.40
2022,04,17,07,47,3.40
2022,04,17,07,48,3.50
2022,04,17,07,49,3.50
2022,04,17,07,50,3.60
2022,04,17,07,51,3.60
2022,04,17,07,52,3.60
2022,04,17,07,53,3.70
2022,04,17,07,54,3.70
2022,04,17,07,55,3.70
2022,04,17,07,56,3.70
2022,04,17,07,57,3.80
2022,04,17,07,58,3.80
2022,04,17,07,59,3.90
2022,04,17,08,00,3.90
2022,04,17,08,01,3.90
2022,04,17,08,02,4.00
2022,04,17,08,03,4.00
2022,04,17,08,04,4.00
2022,04,17,08,05,4.00
2022,04,17,08,06,4.10
2022,04,17,08,07,4.00
2022,04,17,08,08,4.00
2022,04,17,08,09,4.10
2022,04,17,08,10,4.10
2022,04,17,08,11,4.10
2022,04,17,08,12,4.10
2022,04,17,08,13,4.10
2022,04,17,08,14,4.00
2022,04,17,08,15,4.10
2022,04,17,08,16,4.10
2022,04,17,08,17,4.10
2022,04,17,08,18,4.10
2022,04,17,08,19,4.10
2022,04,17,08,20,4.10
2022,04,17,08,21,4.20
2022,04,17,08,22,4.20
2022,04,17,08,23,4.30
2022,04,17,08,24,4.30
2022,04,17,08,25,4.40
2022,04,17,08,26,4.40
2022,04,17,08,27,4.50
2022,04,17,08,28,4.50
2022,04,17,08,29,4.60
2022,04,17,08,30,4.70
2022,04,17,08,31,4.70
2022,04,17,08,32,4.70
2022,04,17,08,33,4.80
2022,04,17,08,34,4.80
2022,04,17,08,35,4.80
2022,04,17,08,36,4.80
2022,04,17,08,37,4.80
2022,04,17,08,38,4.80
2022,04,17,08,39,4.80
2022,04,17,08,40,4.90
2022,04,17,08,41,4.90
2022,04,17,08,42,4.90
2022,04,17,08,43,4.90
2022,04,17,08,44,4.90
2022,04,17,08,45,5.00
2022,04,17,08,46,5.00
2022,04,17,08,47,5.00
2022,04,17,08,48,5.00
2022,04,17,08,49,5.10
2022,04,17,08,50,5.10
2022,04,17,08,51,5.20
2022,04,17,08,52,5.20
2022,04,17,08,53,5.20
2022,04,17,08,54,5.30
2022,04,17,08,55,5.30
2022,04,17,08,56,5.30
2022,04,17,08,57,5.30
2022,04,17,08,58,5.40
2022,04,17,08,59,5.40
2022,04,17,09,00,5.30
2022,04,17,09,01,5.30
2022,04,17,09,02,5.30
2022,04,17,09,03,5.30
2022,04,17,09,04,5.30
2022,04,17,09,05,5.30
2022,04,17,09,06,5.30
2022,04,17,09,07,5.30
2022,04,17,09,08,5.30
2022,04,17,09,09,5.30
2022,04,17,09,10,5.30
2022,04,17,09,11,5.30
2022,04,17,09,12,5.20
2022,04,17,09,13,5.30
2022,04,17,09,14,5.30
2022,04,17,09,15,5.30
2022,04,17,09,16,5.30
2022,04,17,09,17,5.30
2022,04,17,09,18,5.30
2022,04,17,09,19,5.30
2022,04,17,09,20,5.30
2022,04,17,09,21,5.30
2022,04,17,09,22,5.40
2022,04,17,09,23,5.40
2022,04,17,09,24,5.40
2022,04,17,09,25,5.40
2022,04,17,09,26,5.40
2022,04,17,09,27,5.40
2022,04,17,09,28,5.40
2022,04,17,09,29,5.40
2022,04,17,09,30,5.40
2022,04,17,09,31,5.40
2022,04,17,09,32,5.40
2022,04,17,09,33,5.40
2022,04,17,09,34,5.40
2022,04,17,09,35,5.50
2022,04,17,09,36,5.50
2022,04,17,09,37,5.60
2022,04,17,09,38,5.60
2022,04,17,09,39,5.60
2022,04,17,09,40,5.60
2022,04,17,09,41,5.70
2022,04,17,09,42,5.70
2022,04,17,09,43,5.70
2022,04,17,09,44,5.80
2022,04,17,09,45,5.80
2022,04,17,09,46,5.80
2022,04,17,09,47,5.80
2022,04,17,09,48,5.80
2022,04,17,09,49,5.80
2022,04,17,09,50,5.80
2022,04,17,09,51,5.80
2022,04,17,09,52,5.80
2022,04,17,09,53,5.80
2022,04,17,09,54,5.80
2022,04,17,09,55,5.80
2022,04,17,09,56,5.80
2022,04,17,09,57,5.80
2022,04,17,09,58,5.80
2022,04,17,09,59,5.90
2022,04,17,10,00,6.00
2022,04,17,10,01,6.00
2022,04,17,10,02,6.10
2022,04,17,10,03,6.20
2022,04,17,10,04,6.30
2022,04,17,10,05,6.40
2022,04,17,10,06,6.50
2022,04,17,10,07,6.60
2022,04,17,10,08,6.60
2022,04,17,10,09,6.60
2022,04,17,10,10,6.70
2022,04,17,10,11,6.70
2022,04,17,10,12,6.70
2022,04,17,10,13,6.70
2022,04,17,10,14,6.70
2022,04,17,10,15,6.80
2022,04,17,10,16,6.90
2022,04,17,10,17,7.00
2022,04,17,10,18,7.10
2022,04,17,10,19,7.20
2022,04,17,10,20,7.30
2022,04,17,10,21,7.40
2022,04,17,10,22,7.50
2022,04,17,10,23,7.60
2022,04,17,10,24,7.70
2022,04,17,10,25,7.70
2022,04,17,10,26,7.70
2022,04,17,10,27,7.70
2022,04,17,10,28,7.80
2022,04,17,10,29,7.80
2022,04,17,10,30,7.90
2022,04,17,10,31,8.00
2022,04,17,10,32,8.10
2022,04,17,10,33,8.10
2022,04,17,10,34,8.10
2022,04,17,10,35,8.20
2022,04,17,10,36,8.20
2022,04,17,10,37,8.20
2022,04,17,10,38,8.20
2022,04,17,10,39,8.20
2022,04,17,10,40,8.20
2022,04,17,10,41,8.20
2022,04,17,10,42,8.20
2022,04,17,10,43,8.20
2022,04,17,10,44,8.20
2022,04,17,10,45,8.20
2022,04,17,10,46,8.20
2022,04,17,10,47,8.20
2022,04,17,10,48,8.20
2022,04,17,10,49,8.20
2022,04,17,10,50,8.20
2022,04,17,10,51,8.20
2022,04,17,10,52,8.20
2022,04,17,10,53,8.20
2022,04,17,10,54,8.20
2022,04,17,10,55,8.20
2022,04,17,10,56,8.30
2022,04,17,10,57,8.30
2022,04,17,10,58,8.30
2022,04,17,10,59,8.20
2022,04,17,11,00,8.20
2022,04,17,11,01,8.20
2022,04,17,11,02,8.20
2022,04,17,11,03,8.20
2022,04,17,11,04,8.20
2022,04,17,11,05,8.10
2022,04,17,11,06,8.10
2022,04,17,11,07,8.10
2022,04,17,11,08,8.00
2022,04,17,11,09,8.00
2022,04,17,11,10,8.00
2022,04,17,11,11,8.00
2022,04,17,11,12,8.00
2022,04,17,11,13,8.00
2022,04,17,11,14,8.00
2022,04,17,11,15,8.00
2022,04,17,11,16,8.00
2022,04,17,11,17,8.10
2022,04,17,11,18,8.10
2022,04,17,11,19,8.00
2022,04,17,11,20,8.00
2022,04,17,11,21,8.10
2022,04,17,11,22,8.10
2022,04,17,11,23,8.10
2022,04,17,11,24,8.20
2022,04,17,11,25,8.20
2022,04,17,11,26,8.20
2022,04,17,11,27,8.20
2022,04,17,11,28,8.20
2022,04,17,11,29,8.20
2022,04,17,11,30,8.20
2022,04,17,11,31,8.20
2022,04,17,11,32,8.10
2022,04,17,11,33,8.10
2022,04,17,11,34,8.00
2022,04,17,11,35,8.00
2022,04,17,11,36,8.00
2022,04,17,11,37,8.10
2022,04,17,11,38,8.10
2022,04,17,11,39,8.20
2022,04,17,11,40,8.30
2022,04,17,11,41,8.30
2022,04,17,11,42,8.30
2022,04,17,11,43,8.30
2022,04,17,11,44,8.30
2022,04,17,11,45,8.30
2022,04,17,11,46,8.40
2022,04,17,11,47,8.50
2022,04,17,11,48,8.50
2022,04,17,11,49,8.60
2022,04,17,11,50,8.50
2022,04,17,11,51,8.60
2022,04,17,11,52,8.60
2022,04,17,11,53,8.60
2022,04,17,11,54,8.70
2022,04,17,11,55,8.70
2022,04,17,11,56,8.70
2022,04,17,11,57,8.70
2022,04,17,11,58,8.80
2022,04,17,11,59,8.80
2022,04,17,12,00,8.90
2022,04,17,12,01,8.90
2022,04,17,12,02,8.90
2022,04,17,12,03,9.00
2022,04,17,12,04,9.00
2022,04,17,12,05,9.10
2022,04,17,12,06,9.20
2022,04,17,12,07,9.20
2022,04,17,12,08,9.20
2022,04,17,12,09,9.20
2022,04,17,12,10,9.10
2022,04,17,12,11,9.10
2022,04,17,12,12,9.10
2022,04,17,12,13,9.10
2022,04,17,12,14,9.20
2022,04,17,12,15,9.20
2022,04,17,12,16,9.20
2022,04,17,12,17,9.20
2022,04,17,12,18,9.30
2022,04,17,12,19,9.40
2022,04,17,12,20,9.40
2022,04,17,12,21,9.50
2022,04,17,12,22,9.60
2022,04,17,12,23,9.60
2022,04,17,12,24,9.60
2022,04,17,12,25,9.60
2022,04,17,12,26,9.70
2022,04,17,12,27,9.70
2022,04,17,12,28,9.70
2022,04,17,12,29,9.80
2022,04,17,12,30,9.80
2022,04,17,12,31,9.70
2022,04,17,12,32,9.70
2022,04,17,12,33,9.60
2022,04,17,12,34,9.60
2022,04,17,12,35,9.50
2022,04,17,12,36,9.30
2022,04,17,12,37,9.20
2022,04,17,12,38,9.10
2022,04,17,12,39,9.10
2022,04,17,12,40,9.10
2022,04,17,12,41,9.10
2022,04,17,12,42,9.10
2022,04,17,12,43,9.10
2022,04,17,12,44,9.10
2022,04,17,12,45,9.10
2022,04,17,12,46,9.10
2022,04,17,12,47,9.00
2022,04,17,12,48,9.00
2022,04,17,12,49,8.90
2022,04,17,12,50,9.00
2022,04,17,12,51,9.10
2022,04,17,12,52,9.20
2022,04,17,12,53,9.30
2022,04,17,12,54,9.30
2022,04,17,12,55,9.30
2022,04,17,12,56,9.30
2022,04,17,12,57,9.30
2022,04,17,12,58,9.30
2022,04,17,12,59,9.40
2022,04,17,13,00,9.50
2022,04,17,13,01,9.50
2022,04,17,13,02,9.60
2022,04,17,13,03,9.70
2022,04,17,13,04,9.70
2022,04,17,13,05,9.70
2022,04,17,13,06,9.70
2022,04,17,13,07,9.70
2022,04,17,13,08,9.80
2022,04,17,13,09,9.80
2022,04,17,13,10,9.90
2022,04,17,13,11,10.00
2022,04,17,13,12,10.00
2022,04,17,13,13,10.00
2022,04,17,13,14,10.00
2022,04,17,13,15,10.10
2022,04,17,13,16,10.10
2022,04,17,13,17,10.10
2022,04,17,13,18,10.00
2022,04,17,13,19,10.00
2022,04,17,13,20,9.90
2022,04,17,13,21,9.90
2022,04,17,13,22,9.90
2022,04,17,13,23,9.90
2022,04,17,13,24,9.80
2022,04,17,13,25,9.80
2022,04,17,13,26,9.70
2022,04,17,13,27,9.70
2022,04,17,13,28,9.60
2022,04,17,13,29,9.60
2022,04,17,13,30,9.60
2022,04,17,13,31,9.60
2022,04,17,13,32,9.60
2022,04,17,13,33,9.60
2022,04,17,13,34,9.60
2022,04,17,13,35,9.70
2022,04,17,13,36,9.70
2022,04,17,13,37,9.80
2022,04,17,13,38,9.90
2022,04,17,13,39,10.00
2022,04,17,13,40,10.10
2022,04,17,13,41,10.10
2022,04,17,13,42,10.20
2022,04,17,13,43,10.30
2022,04,17,13,44,10.40
2022,04,17,13,45,10.50
2022,04,17,13,46,10.60
2022,04,17,13,47,10.70
2022,04,17,13,48,10.80
2022,04,17,13,49,10.80
2022,04,17,13,50,10.80
2022,04,17,13,51,10.80
2022,04,17,13,52,10.80
2022,04,17,13,53,10.80
2022,04,17,13,54,10.70
2022,04,17,13,55,10.60
2022,04,17,13,56,10.50
2022,04,17,13,57,10.60
2022,04,17,13,58,10.50
2022,04,17,13,59,10.40
2022,04,17,14,00,10.40
2022,04,17,14,01,10.30
2022,04,17,14,02,10.30
2022,04,17,14,03,10.30
2022,04,17,14,04,10.20
2022,04,17,14,05,10.20
2022,04,17,14,06,10.20
2022,04,17,14,07,10.20
2022,04,17,14,08,10.20
2022,04,17,14,09,10.20
2022,04,17,14,10,10.20
2022,04,17,14,11,10.30
2022,04,17,14,12,10.30
2022,04,17,14,13,10.40
2022,04,17,14,14,10.50
2022,04,17,14,15,10.50
2022,04,17,14,16,10.50
2022,04,17,14,17,10.60
2022,04,17,14,18,10.70
2022,04,17,14,19,10.70
2022,04,17,14,20,10.70
2022,04,17,14,21,10.60
2022,04,17,14,22,10.70
2022,04,17,14,23,10.70
2022,04,17,14,24,10.80
2022,04,17,14,25,10.80
2022,04,17,14,26,10.90
2022,04,17,14,27,10.90
2022,04,17,14,28,10.90
2022,04,17,14,29,10.90
2022,04,17,14,30,10.80
2022,04,17,14,31,10.80
2022,04,17,14,32,10.80
2022,04,17,14,33,10.70
2022,04,17,14,34,10.70
2022,04,17,14,35,10.80
2022,04,17,14,36,10.80
2022,04,17,14,37,10.90
2022,04,17,14,38,11.00
2022,04,17,14,39,11.10
2022,04,17,14,40,11.20
2022,04,17,14,41,11.20
2022,04,17,14,42,11.10
2022,04,17,14,43,11.10
2022,04,17,14,44,11.00
2022,04,17,14,45,11.00
2022,04,17,14,46,10.90
2022,04,17,14,47,10.90
2022,04,17,14,48,10.80
2022,04,17,14,49,10.80
2022,04,17,14,50,10.80
2022,04,17,14,51,10.80
2022,04,17,14,52,10.80
2022,04,17,14,53,10.90
2022,04,17,14,54,10.90
2022,04,17,14,55,10.90
2022,04,17,14,56,10.90
2022,04,17,14,57,11.00
2022,04,17,14,58,11.00
2022,04,17,14,59,11.10
2022,04,17,15,00,11.20
2022,04,17,15,01,11.20
2022,04,17,15,02,11.20
2022,04,17,15,03,11.20
2022,04,17,15,04,11.20
2022,04,17,15,05,11.30
2022,04,17,15,06,11.30
2022,04,17,15,07,11.30
2022,04,17,15,08,11.40
2022,04,17,15,09,11.50
2022,04,17,15,10,11.50
2022,04,17,15,11,11.60
2022,04,17,15,12,11.60
2022,04,17,15,13,11.70
2022,04,17,15,14,11.70
2022,04,17,15,15,11.80
2022,04,17,15,16,11.80
2022,04,17,15,17,11.90
2022,04,17,15,18,11.90
2022,04,17,15,19,12.00
2022,04,17,15,20,12.00
2022,04,17,15,21,12.00
2022,04,17,15,22,11.90
2022,04,17,15,23,11.90
2022,04,17,15,24,11.90
2022,04,17,15,25,11.80
2022,04,17,15,26,11.70
2022,04,17,15,27,11.70
2022,04,17,15,28,11.60
2022,04,17,15,29,11.60
2022,04,17,15,30,11.60
2022,04,17,15,31,11.60
2022,04,17,15,32,11.60
2022,04,17,15,33,11.60
2022,04,17,15,34,11.60
2022,04,17,15,35,11.60
2022,04,17,15,36,11.70
2022,04,17,15,37,11.70
2022,04,17,15,38,11.70
2022,04,17,15,39,11.70
2022,04,17,15,40,11.70
2022,04,17,15,41,11.60
2022,04,17,15,42,11.60
2022,04,17,15,43,11.60
2022,04,17,15,44,11.60
2022,04,17,15,45,11.60
2022,04,17,15,46,11.60
2022,04,17,15,47,11.60
2022,04,17,15,48,11.60
2022,04,17,15,49,11.60
2022,04,17,15,50,11.50
2022,04,17,15,51,11.60
2022,04,17,15,52,11.60
2022,04,17,15,53,11.60
2022,04,17,15,54,11.50
2022,04,17,15,55,11.50
2022,04,17,15,56,11.50
2022,04,17,15,57,11.50
2022,04,17,15,58,11.50
2022,04,17,15,59,11.40
2022,04,17,16,00,11.40
2022,04,17,16,01,11.40
2022,04,17,16,02,11.40
2022,04,17,16,03,11.40
2022,04,17,16,04,11.30
2022,04,17,16,05,11.40
2022,04,17,16,06,11.40
2022,04,17,16,07,11.30
2022,04,17,16,08,11.30
2022,04,17,16,09,11.20
2022,04,17,16,10,11.20
2022,04,17,16,11,11.20
2022,04,17,16,12,11.20
2022,04,17,16,13,11.10
2022,04,17,16,14,11.10
2022,04,17,16,15,11.10
2022,04,17,16,16,11.10
2022,04,17,16,17,11.10
2022,04,17,16,18,11.10
2022,04,17,16,19,11.20
2022,04,17,16,20,11.20
2022,04,17,16,21,11.20
2022,04,17,16,22,11.20
2022,04,17,16,23,11.20
2022,04,17,16,24,11.20
2022,04,17,16,25,11.30
2022,04,17,16,26,11.30
2022,04,17,16,27,11.30
2022,04,17,16,28,11.30
2022,04,17,16,29,11.30
2022,04,17,16,30,11.20
2022,04,17,16,31,11.20
2022,04,17,16,32,11.20
2022,04,17,16,33,11.20
2022,04,17,16,34,11.20
2022,04,17,16,35,11.20
2022,04,17,16,36,11.20
2022,04,17,16,37,11.30
2022,04,17,16,38,11.30
2022,04,17,16,39,11.30
2022,04,17,16,40,11.30
2022,04,17,16,41,11.30
2022,04,17,16,42,11.20
2022,04,17,16,43,11.20
2022,04,17,16,44,11.20
2022,04,17,16,45,11.10
2022,04,17,16,46,11.10
2022,04,17,16,47,11.10
2022,04,17,16,48,11.10
2022,04,17,16,49,11.00
2022,04,17,16,50,11.00
2022,04,17,16,51,11.00
2022,04,17,16,52,10.90
2022,04,17,16,53,10.90
2022,04,17,16,54,10.90
2022,04,17,16,55,10.90
2022,04,17,16,56,10.90
2022,04,17,16,57,10.90
2022,04,17,16,58,10.90
2022,04,17,16,59,10.90
2022,04,17,17,00,10.80
2022,04,17,17,01,10.80
2022,04,17,17,02,10.80
2022,04,17,17,03,10.80
2022,04,17,17,04,10.80
2022,04,17,17,05,10.80
2022,04,17,17,06,10.80
2022,04,17,17,07,10.80
2022,04,17,17,08,10.90
2022,04,17,17,09,10.90
2022,04,17,17,10,10.90
2022,04,17,17,11,10.90
2022,04,17,17,12,10.90
2022,04,17,17,13,10.90
2022,04,17,17,14,10.80
2022,04,17,17,15,10.80
2022,04,17,17,16,10.80
2022,04,17,17,17,10.80
2022,04,17,17,18,10.70
2022,04,17,17,19,10.70
2022,04,17,17,20,10.70
2022,04,17,17,21,10.70
2022,04,17,17,22,10.70
2022,04,17,17,23,10.70
2022,04,17,17,24,10.70
2022,04,17,17,25,10.70
2022,04,17,17,26,10.70
2022,04,17,17,27,10.70
2022,04,17,17,28,10.70
2022,04,17,17,29,10.70
2022,04,17,17,30,10.70
2022,04,17,17,31,10.70
2022,04,17,17,32,10.60
2022,04,17,17,33,10.60
2022,04,17,17,34,10.60
2022,04,17,17,35,10.60
2022,04,17,17,36,10.60
2022,04,17,17,37,10.60
2022,04,17,17,38,10.50
2022,04,17,17,39,10.50
2022,04,17,17,40,10.50
2022,04,17,17,41,10.50
2022,04,17,17,42,10.50
2022,04,17,17,43,10.40
2022,04,17,17,44,10.40
2022,04,17,17,45,10.30
2022,04,17,17,46,10.30
2022,04,17,17,47,10.20
2022,04,17,17,48,10.20
2022,04,17,17,49,10.20
2022,04,17,17,50,10.10
2022,04,17,17,51,10.10
2022,04,17,17,52,10.00
2022,04,17,17,53,10.00
2022,04,17,17,54,9.90